[[{"header":{"parameterUnit":"m.s-1","parameterCategory":1,"la1":30.2992,"la2":30.254,"lo1":-89.0895,"lo2":-89.0443,"dy":0.0025,"dx":0.0025,"nx":19,"ny":19,"refTime":"2026-03-13T09:00:00:Z","depth":0,"parameterNumber":2,"parameterNumberName":"U-component_of_WINDS"},"data":[0,0,0,-0.707,-0.7072,-0.7191,-0.7192,-0.7332,-0.7333,0,0,0,0,0,0,0,0,0,0,0,-0.7026,-0.7027,-0.707,-0.7073,-0.7191,-0.7192,-0.7332,-0.7333,0,0,0,0,0,0,0,0,0,0,0,-0.7026,-0.7027,-0.7027,-0.7073,-0.7191,-0.7192,-0.7332,-0.7247,0,0,0,0,0,0,0,0,0,0,-0.7134,-0.7084,-0.7026,-0.7027,-0.7074,-0.7191,-0.7192,-0.7243,-0.7252,-0.7273,0,-0.7288,0,-0.7312,-0.7342,-0.7342,0,0,0,-0.708,-0.7076,-0.7116,-0.7028,-0.7075,-0.7191,-0.714,-0.7248,-0.7259,-0.7285,-0.729,-0.7295,-0.7315,-0.7343,-0.7343,-0.7436,-0.7436,0,0,-0.7073,-0.7043,-0.7109,-0.7122,-0.7101,-0.7136,-0.7143,-0.7255,-0.7258,-0.729,-0.7299,-0.7317,-0.7344,-0.7345,-0.7436,-0.7436,0,0,0,-0.705,-0.7038,-0.7076,-0.7116,-0.7138,-0.7139,-0.7148,-0.7254,-0.7268,-0.73,-0.7319,-0.7344,-0.7346,-0.7436,-0.7436,-0.741,0,0,0,-0.7046,-0.7025,-0.7072,-0.7055,-0.7136,-0.7197,-0.7144,-0.726,-0.7274,-0.7318,-0.7344,-0.7347,-0.7436,-0.7436,-0.7411,-0.7403,0,0,0,-0.7022,-0.7022,-0.7036,-0.7053,-0.7103,-0.7196,-0.7217,-0.7264,-0.7285,-0.7342,-0.7347,-0.7436,-0.7436,-0.7411,-0.7404,-0.7418,0,0,0,-0.6987,-0.7012,-0.7035,-0.707,-0.7102,-0.7178,-0.7217,-0.7276,-0.7322,-0.7345,-0.7436,-0.7436,-0.7411,-0.7405,-0.7419,-0.7425,-0.7424,0,0,-0.7002,-0.7013,-0.7036,-0.706,-0.7124,-0.7163,-0.7225,-0.7297,-0.7331,-0.7399,-0.7402,-0.741,-0.7404,-0.7419,-0.7433,-0.7432,0,0,0,-0.7031,-0.7047,-0.7071,-0.7113,-0.7167,-0.7214,-0.7279,-0.7306,-0.7365,-0.7359,-0.7421,-0.7418,-0.7428,-0.7432,-0.7431,-0.7442,-0.7436,-0.7436,-0.7436,-0.7009,-0.705,-0.7092,-0.7146,-0.7187,-0.7254,-0.7291,-0.7339,-0.737,-0.7384,-0.7404,-0.7408,-0.7411,-0.7411,-0.7422,-0.7411,-0.7411,-0.7411,-0.7411,-0.7035,-0.7065,-0.7104,-0.7157,-0.7201,-0.7248,-0.7314,-0.7334,-0.7386,-0.7396,-0.7406,-0.7413,-0.7409,-0.7421,-0.7409,-0.741,-0.741,-0.741,-0.741,-0.7025,-0.7047,-0.7078,-0.7142,-0.7188,-0.7244,-0.729,-0.7329,-0.7367,-0.7377,-0.7403,-0.7404,-0.7409,-0.7387,-0.7387,-0.7387,-0.7387,-0.7387,-0.7387,-0.7003,-0.7039,-0.7072,-0.7131,-0.7163,-0.7211,-0.7279,-0.7312,-0.7359,-0.7384,-0.7385,-0.7414,-0.7401,-0.7397,-0.7387,-0.7387,-0.7387,-0.7387,-0.7387,-0.7013,-0.7017,-0.7068,-0.71,-0.7173,-0.7216,-0.7265,-0.733,-0.7364,-0.7386,-0.7413,-0.7397,-0.7412,-0.7412,-0.7409,-0.7404,-0.7404,-0.7404,-0.7404,-0.7005,-0.7016,-0.7077,-0.7125,-0.7177,-0.7226,-0.7285,-0.7339,-0.7395,-0.7419,-0.7425,-0.7425,-0.7423,-0.7439,-0.7439,-0.7437,-0.7438,-0.7438,-0.7438,-0.7014,-0.7031,-0.7072,-0.7125,-0.7186,-0.7237,-0.7294,-0.735,-0.7415,-0.7441,-0.7438,-0.7437,-0.7436,-0.7434,-0.7458,-0.7458,-0.7454,0,0]},{"header":{"parameterUnit":"m.s-1","parameterCategory":1,"la1":30.2992,"la2":30.254,"lo1":-89.0895,"lo2":-89.0443,"dy":0.0025,"dx":0.0025,"nx":19,"ny":19,"refTime":"2026-03-13T09:00:00:Z","depth":0,"parameterNumber":3,"parameterNumberName":"V-component_of_WINDS"},"data":[0,0,0,0.4796,0.4798,0.4891,0.4891,0.5012,0.5013,0,0,0,0,0,0,0,0,0,0,0,0.4771,0.4772,0.4796,0.4798,0.4891,0.4891,0.5012,0.5013,0,0,0,0,0,0,0,0,0,0,0,0.477,0.4771,0.4773,0.4799,0.4891,0.4891,0.5012,0.4941,0,0,0,0,0,0,0,0,0,0,0.4851,0.4829,0.4771,0.4773,0.4799,0.489,0.4891,0.4937,0.4945,0.4971,0,0.4995,0,0.5006,0.5021,0.5022,0,0,0,0.4797,0.4823,0.4846,0.4773,0.48,0.489,0.4849,0.4942,0.4951,0.4982,0.4997,0.5001,0.5008,0.5022,0.5023,0.5176,0.5177,0,0,0.4792,0.4789,0.484,0.4851,0.4837,0.4846,0.4852,0.4947,0.4963,0.4997,0.5004,0.501,0.5023,0.5024,0.5175,0.5176,0,0,0,0.4778,0.4785,0.4806,0.4847,0.4863,0.4848,0.4855,0.4959,0.4966,0.5005,0.5011,0.5024,0.5025,0.5174,0.5175,0.5209,0,0,0,0.4775,0.4777,0.4804,0.4802,0.4861,0.4912,0.4865,0.4959,0.497,0.5011,0.5024,0.5026,0.5173,0.5175,0.5207,0.5226,0,0,0,0.4764,0.4776,0.479,0.4802,0.4841,0.4911,0.4923,0.4962,0.4974,0.5022,0.5027,0.5173,0.5175,0.5204,0.5222,0.5264,0,0,0,0.4752,0.482,0.479,0.4868,0.4841,0.4931,0.4923,0.499,0.5035,0.5024,0.5174,0.5175,0.5203,0.522,0.5262,0.5299,0.5314,0,0,0.4836,0.483,0.4876,0.4852,0.4947,0.4917,0.5017,0.5062,0.507,0.514,0.5144,0.5207,0.5222,0.5264,0.5402,0.5414,0,0,0,0.4901,0.4935,0.496,0.5002,0.5038,0.5069,0.5099,0.5115,0.5175,0.5105,0.5235,0.5243,0.5268,0.5286,0.5296,0.5317,0.5184,0.5183,0.5183,0.5016,0.5021,0.5098,0.5114,0.5155,0.5184,0.5217,0.5244,0.5239,0.5269,0.529,0.5373,0.5394,0.5402,0.5424,0.5311,0.5311,0.5311,0.5311,0.5139,0.5186,0.5176,0.5246,0.5251,0.531,0.534,0.5334,0.539,0.5359,0.5381,0.5346,0.5415,0.5434,0.5314,0.5313,0.5313,0.5313,0.5313,0.5215,0.5238,0.5256,0.5315,0.5361,0.5375,0.5428,0.5431,0.5435,0.5457,0.5478,0.5477,0.5477,0.5466,0.5467,0.5467,0.5467,0.5468,0.5468,0.5286,0.5304,0.5349,0.539,0.5416,0.5451,0.5479,0.5505,0.5535,0.5533,0.5533,0.5524,0.5421,0.5394,0.5472,0.5471,0.5471,0.547,0.547,0.5408,0.538,0.5449,0.5475,0.5522,0.5566,0.5569,0.5621,0.5643,0.5669,0.5655,0.5578,0.5572,0.5564,0.5542,0.5654,0.5654,0.5654,0.5654,0.5471,0.5468,0.5538,0.5579,0.5619,0.5628,0.5704,0.5726,0.5744,0.5758,0.5742,0.5714,0.5705,0.5705,0.5694,0.5673,0.5815,0.5816,0.5816,0.5547,0.5547,0.5611,0.5628,0.5665,0.5696,0.5767,0.5815,0.583,0.5822,0.5769,0.5762,0.5715,0.57,0.5691,0.5674,0.5637,0,0]}]]